[[{"header":{"parameterUnit":"m.s-1","parameterCategory":1,"la1":30.2991,"la2":30.254,"lo1":-89.0895,"lo2":-89.0444,"dy":0.0017,"dx":0.0017,"nx":28,"ny":28,"refTime":"2026-03-04T03:00:00:Z","depth":0,"parameterNumber":2,"parameterNumberName":"U-component_of_WINDS"},"data":[0,0,0,0,0,0,0,0,0,0,0,0,0,0,0,0,0,0,0,0,0,0,0,0,0,0,0,0,0,0,0,0,0,0,0,0,0,0,0,0,0,0,0,0,0,0,0,0,0,0,0,0,0,0,0,0,0,0,-3.9585,-3.9586,0,-3.9611,-3.9611,-3.9612,-3.9551,-3.9549,-3.9547,-3.9545,-3.9569,-3.9572,-3.9574,0,0,0,0,0,0,0,0,0,0,0,0,0,-3.9483,-3.9486,-3.9585,-3.9586,-3.9586,-3.9611,-3.9611,-3.9612,-3.9551,-3.9549,-3.9547,-3.9544,-3.9568,-3.9571,-3.9574,0,0,0,0,0,0,0,0,0,0,0,0,0,-3.952,-3.9486,-3.9585,-3.9559,-3.9557,-3.9611,-3.9611,-3.9612,-3.9552,-3.9549,-3.9546,-3.9543,-3.9567,-3.9571,-3.9575,-3.9655,0,0,-3.9586,-3.9587,0,0,0,0,0,0,0,0,-3.9518,-3.9524,-3.9563,-3.9561,-3.9559,-3.9575,-3.9584,-3.9626,-3.9553,-3.9554,-3.9545,-3.9542,-3.9573,-3.9576,-3.9587,-3.9656,-3.9657,-3.9586,-3.9588,-3.959,-3.9591,0,0,0,0,0,0,0,-3.9516,-3.9523,-3.9595,-3.9563,-3.9561,-3.9546,-3.9548,-3.9592,-3.9579,-3.9553,-3.9549,-3.9553,-3.9572,-3.9584,-3.9587,-3.9657,-3.9586,-3.9589,-3.9591,-3.9593,-3.9793,-3.9796,0,0,0,0,0,0,-3.9517,-3.9521,-3.9595,-3.9596,-3.9531,-3.955,-3.9552,-3.9573,-3.9579,-3.9577,-3.9555,-3.955,-3.9579,-3.9583,-3.9588,-3.9682,-3.959,-3.9593,-3.9595,-3.979,-3.9794,-3.9797,0,0,0,0,0,0,-3.9515,-3.9524,-3.9594,-3.9557,-3.9565,-3.9555,-3.9578,-3.9575,-3.9587,-3.958,-3.9577,-3.957,-3.9577,-3.9583,-3.9639,-3.9682,-3.9595,-3.9598,-3.9786,-3.9791,-3.9796,-3.987,0,0,0,0,0,0,-3.9512,-3.9524,-3.9554,-3.9559,-3.9567,-3.9644,-3.9581,-3.9577,-3.9593,-3.9587,-3.9593,-3.9592,-3.9575,-3.9634,-3.9642,-3.9685,-3.9601,-3.9782,-3.9789,-3.9794,-3.9863,-3.9876,-3.9888,0,0,0,0,0,-3.9509,-3.9573,-3.9556,-3.9565,-3.9605,-3.9647,-3.9652,-3.9632,-3.9597,-3.9627,-3.9624,-3.9592,-3.9676,-3.964,-3.9649,-3.9694,-3.978,-3.9787,-3.9794,-3.9858,-3.9874,-3.9887,0,0,0,0,0,0,-3.9572,-3.9573,-3.9554,-3.9622,-3.9635,-3.9636,-3.9673,-3.9649,-3.9672,-3.9664,-3.9639,-3.9641,-3.9702,-3.9704,-3.9663,-3.9772,-3.9722,-3.9731,-3.9768,-3.9783,-3.9795,-3.9792,-3.9604,0,0,0,0,0,-3.9594,-3.9629,-3.9628,-3.9687,-3.9695,-3.9684,-3.9701,-3.9685,-3.9697,-3.9702,-3.9702,-3.9715,-3.9745,-3.9764,-3.9791,-3.9865,-3.9865,-3.99,-3.9912,-3.9922,-3.9929,-3.9969,-3.9984,-3.982,-3.982,-3.982,0,0,-3.9639,-3.9644,-3.9667,-3.97,-3.9708,-3.9744,-3.9689,-3.9728,-3.9755,-3.9708,-3.976,-3.9762,-3.9774,-3.984,-3.9868,-3.9843,-3.9975,-3.9931,-3.9939,-3.9941,-3.9977,-3.9993,-4.0007,-3.9825,-3.9824,-3.9824,0,0,-3.9739,-3.9747,-3.9798,-3.9808,-3.9822,-3.9815,-3.9827,-3.9834,-3.9833,-3.9886,-3.9852,-3.9883,-3.9934,-3.9945,-3.9957,-4.0065,-4.0036,-4.0075,-4.0136,-4.0175,-4.0188,-4.0199,-4.0236,-4.025,-4.0083,-4.0083,-4.0083,0,-3.9793,-3.9846,-3.9827,-3.987,-3.9885,-3.9847,-3.9898,-3.9909,-3.9931,-3.9942,-3.9915,-3.9979,-3.9985,-4.0052,-4.0079,-4.009,-4.0103,-4.0072,-4.0188,-4.0199,-4.0209,-4.0244,-4.0258,-4.0087,-4.0087,-4.0086,-4.0086,0,-3.9911,-3.9949,-3.9988,-4.0012,-4.0032,-4.0079,-4.0067,-4.009,-4.0074,-4.0069,-4.0124,-4.013,-4.0158,-4.0173,-4.0157,-4.0239,-4.0222,-4.0192,-4.0141,-4.0229,-4.0262,-4.0275,-4.0093,-4.0092,-4.0091,-4.0089,0,0,-4.0048,-4.0063,-4.0077,-4.0088,-4.0102,-4.013,-4.0176,-4.0205,-4.0224,-4.0242,-4.0279,-4.0325,-4.0297,-4.0311,-4.0296,-4.0331,-4.0415,-4.0296,-4.0296,-4.0316,-4.0504,-4.0525,-4.0541,-4.0398,-4.04,-4.0402,-4.0503,0,-4.0145,-4.0224,-4.021,-4.0286,-4.0321,-4.0287,-4.0327,-4.034,-4.0338,-4.0367,-4.0365,-4.0397,-4.0359,-4.0367,-4.04,-4.0398,-4.0452,-4.0391,-4.043,-4.0432,-4.0425,-4.0559,-4.0581,-4.0675,-4.0516,-4.0518,-4.0519,0,-4.0269,-4.0292,-4.0373,-4.0383,-4.0397,-4.0433,-4.0458,-4.0487,-4.0502,-4.0498,-4.0515,-4.0495,-4.054,-4.0492,-4.0554,-4.0512,-4.0529,-4.0531,-4.0534,-4.0534,-4.0479,-4.056,-4.0705,-4.0718,-4.0539,-4.0538,-4.0536,0,-4.0358,-4.0411,-4.0465,-4.0476,-4.0489,-4.0516,-4.0523,-4.0535,-4.0553,-4.0576,-4.0587,-4.0615,-4.063,-4.0652,-4.0639,-4.0605,-4.0703,-4.0654,-4.07,-4.0701,-4.072,-4.0718,-4.0866,-4.0735,-4.0735,-4.0734,-4.0734,0,-4.0467,-4.0517,-4.0506,-4.0539,-4.0595,-4.0579,-4.0634,-4.0637,-4.0649,-4.0682,-4.0655,-4.0687,-4.067,-4.0701,-4.0692,-4.0744,-4.0751,-4.0749,-4.0745,-4.075,-4.075,-4.0757,-4.0749,-4.0738,-4.0737,-4.0737,-4.0736,0,-4.0574,-4.0569,-4.0626,-4.0636,-4.064,-4.068,-4.0688,-4.0719,-4.0717,-4.076,-4.0769,-4.0765,-4.08,-4.0791,-4.0828,-4.0822,-4.0888,-4.0878,-4.0883,-4.0879,-4.0926,-4.0921,-4.1082,-4.1102,-4.096,-4.0962,-4.0963,0,-4.0643,-4.0681,-4.0695,-4.0716,-4.0726,-4.076,-4.0779,-4.0766,-4.0787,-4.0809,-4.0837,-4.087,-4.0895,-4.0953,-4.0953,-4.0982,-4.097,-4.1025,-4.0974,-4.0978,-4.0969,-4.0966,-4.0969,-4.1034,-4.1036,-4.1037,-4.1038,0,-4.0764,-4.076,-4.0789,-4.0819,-4.0843,-4.0865,-4.0884,-4.0903,-4.0892,-4.0917,-4.0953,-4.0973,-4.1013,-4.1045,-4.1073,-4.1079,-4.1057,-4.1055,-4.1067,-4.107,-4.1071,-4.1069,-4.0908,-4.105,-4.1049,-4.1048,-4.1047,-4.1047,-4.0852,-4.0884,-4.09,-4.0934,-4.0948,-4.0968,-4.0998,-4.1001,-4.1031,-4.1062,-4.1053,-4.1094,-4.111,-4.1144,-4.1155,-4.1187,-4.1166,-4.1184,-4.1188,-4.1192,-4.1196,-4.1069,-4.1192,-4.1192,-4.1191,-4.1191,-4.1191,0,-4.097,-4.098,-4.1011,-4.104,-4.1067,-4.1047,-4.1068,-4.1091,-4.1128,-4.1145,-4.1172,-4.1214,-4.1246,-4.125,-4.1281,-4.1306,-4.1296,-4.1314,-4.131,-4.1312,-4.1214,-4.12,-4.1321,-4.1321,-4.1321,-4.1321,-4.1321,-4.1321,-4.1034,-4.1088,-4.1087,-4.1147,-4.1156,-4.1197,-4.1211,-4.1229,-4.1243,-4.1291,-4.1318,-4.1322,-4.1334,-4.1366,-4.1395,-4.1395,-4.1406,-4.1428,-4.1424,-4.1332,-4.1319,-4.1306,-4.1293,-4.1431,-4.1432,-4.1519,-4.152,-4.152]},{"header":{"parameterUnit":"m.s-1","parameterCategory":1,"la1":30.2991,"la2":30.254,"lo1":-89.0895,"lo2":-89.0444,"dy":0.0017,"dx":0.0017,"nx":28,"ny":28,"refTime":"2026-03-04T03:00:00:Z","depth":0,"parameterNumber":3,"parameterNumberName":"V-component_of_WINDS"},"data":[0,0,0,0,0,0,0,0,0,0,0,0,0,0,0,0,0,0,0,0,0,0,0,0,0,0,0,0,0,0,0,0,0,0,0,0,0,0,0,0,0,0,0,0,0,0,0,0,0,0,0,0,0,0,0,0,0,0,1.6742,1.6742,0,1.6766,1.6766,1.6767,1.677,1.677,1.677,1.677,1.6791,1.6792,1.6792,0,0,0,0,0,0,0,0,0,0,0,0,0,1.6697,1.6698,1.6742,1.6742,1.6742,1.6766,1.6766,1.6767,1.677,1.677,1.677,1.6769,1.6791,1.6792,1.6792,0,0,0,0,0,0,0,0,0,0,0,0,0,1.6718,1.6698,1.6742,1.6747,1.6748,1.6766,1.6767,1.6767,1.677,1.677,1.677,1.6769,1.679,1.6791,1.6793,1.6806,0,0,1.6796,1.6797,0,0,0,0,0,0,0,0,1.6717,1.672,1.6746,1.6747,1.6748,1.6765,1.6759,1.678,1.677,1.6762,1.677,1.6769,1.6782,1.6784,1.6789,1.6807,1.6808,1.6796,1.6797,1.6797,1.6798,0,0,0,0,0,0,0,1.6716,1.6719,1.6751,1.6746,1.6747,1.6748,1.6751,1.6763,1.6773,1.6762,1.6763,1.6766,1.6783,1.6788,1.679,1.6808,1.6796,1.6797,1.6798,1.6798,1.6842,1.6842,0,0,0,0,0,0,1.6713,1.6718,1.6751,1.6752,1.6731,1.6749,1.6752,1.676,1.6773,1.6775,1.6766,1.6766,1.6786,1.6788,1.6791,1.6809,1.6797,1.6799,1.6799,1.6841,1.6842,1.6842,0,0,0,0,0,0,1.6712,1.6716,1.675,1.6735,1.6739,1.675,1.6759,1.676,1.6766,1.6776,1.6778,1.677,1.6786,1.6789,1.6803,1.681,1.6799,1.68,1.6841,1.6841,1.6842,1.6845,0,0,0,0,0,0,1.6711,1.6716,1.6721,1.6735,1.674,1.6762,1.6759,1.6761,1.6768,1.6768,1.678,1.6782,1.6786,1.6802,1.6804,1.6811,1.6801,1.684,1.6841,1.6842,1.6845,1.6846,1.6847,0,0,0,0,0,1.671,1.672,1.6721,1.6725,1.6747,1.6762,1.6765,1.6771,1.6769,1.6774,1.6781,1.6781,1.6809,1.6803,1.6806,1.6813,1.684,1.6841,1.6842,1.6844,1.6846,1.6847,0,0,0,0,0,0,1.6704,1.6721,1.6724,1.6739,1.6749,1.6763,1.677,1.6772,1.6783,1.6782,1.6788,1.6791,1.6805,1.6811,1.6804,1.6829,1.6824,1.6826,1.6825,1.6826,1.6828,1.6826,1.6802,0,0,0,0,0,1.6705,1.6717,1.6731,1.6743,1.6749,1.6759,1.6765,1.677,1.678,1.6784,1.6792,1.6802,1.6813,1.682,1.6831,1.6846,1.6849,1.6853,1.6854,1.6855,1.6856,1.6867,1.6869,1.6846,1.6846,1.6846,0,0,1.6706,1.6717,1.6724,1.6742,1.6751,1.6763,1.6762,1.6774,1.6783,1.6786,1.68,1.6807,1.6818,1.6834,1.6841,1.6839,1.6864,1.6856,1.6857,1.6858,1.6868,1.6871,1.6872,1.6846,1.6846,1.6846,0,0,1.6715,1.6724,1.6736,1.6746,1.676,1.6767,1.677,1.6785,1.679,1.6805,1.6808,1.6819,1.6837,1.6846,1.6853,1.6869,1.687,1.6872,1.6879,1.6889,1.6891,1.6892,1.6899,1.6902,1.6873,1.6874,1.6874,0,1.6714,1.6733,1.6741,1.6755,1.6764,1.6769,1.6782,1.679,1.6807,1.6812,1.681,1.6836,1.6844,1.6862,1.6867,1.6872,1.6876,1.687,1.689,1.6892,1.6893,1.69,1.6903,1.6874,1.6874,1.6874,1.6874,0,1.6732,1.6746,1.6754,1.6772,1.6782,1.6794,1.6805,1.6814,1.6818,1.6826,1.6843,1.6853,1.6867,1.6872,1.6874,1.6892,1.689,1.6889,1.6884,1.6896,1.6902,1.6905,1.6874,1.6874,1.6874,1.6874,0,0,1.6735,1.6761,1.6764,1.6774,1.6792,1.6802,1.6816,1.6831,1.6839,1.6851,1.6863,1.6881,1.6881,1.6889,1.6893,1.6903,1.6917,1.6901,1.6901,1.6904,1.6938,1.6939,1.6942,1.6918,1.6918,1.6919,1.6937,0,1.6746,1.6773,1.6782,1.6804,1.6817,1.6824,1.6837,1.6849,1.6857,1.687,1.6878,1.6891,1.6889,1.6895,1.6904,1.6913,1.6924,1.6912,1.6929,1.693,1.6926,1.6945,1.6945,1.6962,1.694,1.694,1.6941,0,1.6762,1.6777,1.6801,1.682,1.6826,1.6837,1.6854,1.6865,1.688,1.6886,1.6897,1.6901,1.6917,1.6912,1.6933,1.6925,1.6933,1.6939,1.694,1.6942,1.6936,1.6948,1.6968,1.697,1.6944,1.6944,1.6944,0,1.6764,1.6789,1.6808,1.6815,1.6838,1.6846,1.6855,1.687,1.688,1.6894,1.6901,1.6916,1.6925,1.6937,1.6946,1.6941,1.6967,1.6963,1.6972,1.6972,1.6977,1.6976,1.6999,1.6982,1.6982,1.6982,1.6982,0,1.6775,1.6789,1.6809,1.682,1.6837,1.6849,1.6864,1.6874,1.6888,1.6901,1.6908,1.692,1.6931,1.6945,1.6952,1.697,1.6974,1.6979,1.698,1.6978,1.6978,1.6983,1.6982,1.6982,1.6982,1.6982,1.6982,0,1.6779,1.6792,1.6813,1.6834,1.684,1.6851,1.6869,1.688,1.689,1.6907,1.6912,1.6927,1.6944,1.6955,1.6975,1.698,1.7,1.7001,1.6996,1.6996,1.7006,1.7005,1.7033,1.7038,1.7017,1.7017,1.7017,0,1.6785,1.6797,1.682,1.6831,1.6841,1.6857,1.6868,1.6881,1.6892,1.6912,1.6921,1.6939,1.6954,1.6981,1.6993,1.701,1.7012,1.7021,1.7014,1.7012,1.7013,1.7012,1.7014,1.7021,1.7021,1.7022,1.7022,0,1.6795,1.6803,1.6819,1.6839,1.6853,1.6868,1.6884,1.6892,1.6907,1.692,1.6938,1.695,1.6974,1.6992,1.701,1.7019,1.7023,1.7024,1.7027,1.7025,1.7022,1.7025,1.6999,1.7023,1.7023,1.7023,1.7023,1.7023,1.6801,1.6813,1.6832,1.6851,1.6865,1.688,1.6893,1.6906,1.6922,1.6944,1.695,1.697,1.6987,1.7013,1.7023,1.7038,1.7037,1.7042,1.7043,1.7044,1.7045,1.702,1.7042,1.7042,1.7042,1.7042,1.7042,0,1.6812,1.6826,1.6844,1.6867,1.6883,1.6888,1.6906,1.6918,1.6936,1.6953,1.6969,1.6991,1.701,1.7025,1.7044,1.7054,1.7056,1.7058,1.7058,1.706,1.7044,1.704,1.7056,1.7056,1.7056,1.7056,1.7056,1.7056,1.682,1.6841,1.6851,1.688,1.6893,1.6915,1.6925,1.694,1.6953,1.6979,1.6995,1.7006,1.7022,1.7043,1.7061,1.7065,1.7072,1.7074,1.7078,1.7063,1.7061,1.7059,1.7056,1.7075,1.7075,1.7093,1.7094,1.7094]}]]